Terminal Aerodrome Forecast
Issued by NWS

Home | Current Version | Previous Version | Text Only | Print | Product List | Glossary On
Versions: 1 2 3 4 5 6 7 8 9 10 11 12 13 14 15 16 17 18 19 20 21 22 23 24 25 26 27 28 29 30 31 32 33 34 35 36 37
000
FTUS46 KPQR 201720
TAFONP
TAF
KONP 201720Z 2018/2118 36008KT P6SM SKC
     FM210400 22008KT 4SM BR OVC003
     FM210900 18010KT 1/2SM FG OVC007=

USA.gov is the U.S. government's official web portal to all federal, state and local government web resources and services.